{"data":{"norad_id":48116,"epoch":"2026-09-19T20:16:48.763776Z","epoch_age_seconds":85738,"freshness":"FRESH","line1":"1 48116U 21027AA  26262.84500884  .00000099  00000+0  14955-4 0  9992","line2":"2 48116  53.1607 342.2865 0001203  77.9465 282.1671 15.31701429302250","mean_motion":15.31701429,"eccentricity":0.0001203,"inclination_deg":53.1607,"raan_deg":342.2865,"arg_perigee_deg":77.9465,"mean_anomaly_deg":282.1671,"bstar":1.4955e-5,"rev_number":30225,"period_min":94.013100251537,"perigee_km":469.91181606424,"apogee_km":471.55965484439,"semimajor_km":6848.8727354543,"source":"CELESTRAK","updated_at":"2026-09-20T09:00:38.764621Z"}}